owner,sensor,date,latitude,longitude,vertical_datum,direction_of_sea_water_velocity,sea_water_speed,upward_sea_water_velocity,qcFlag 
TABS,ioos:station:wmo:42043:1,2006-11-01T00:00:00Z,28.9818,-94.9186,2.0,85.19811385,21.14421434,-99999.0,'11111222,11111222,99999999' 
TABS,ioos:station:wmo:42043:1,2006-11-01T00:30:00Z,28.9818,-94.9186,2.0,78.70281786,17.66221957,-99999.0,'11111222,11111222,99999999' 
TABS,ioos:station:wmo:42043:1,2006-11-01T01:00:00Z,28.9818,-94.9186,2.0,70.91316394,18.89899468,-99999.0,'11111222,11111222,99999999' 
TABS,ioos:station:wmo:42043:1,2006-11-01T01:30:00Z,28.9818,-94.9186,2.0,65.48619314,18.99191407,-99999.0,'11111222,11111222,99999999' 
TABS,ioos:station:wmo:42043:1,2006-11-01T02:00:00Z,28.9818,-94.9186,2.0,67.90452398,20.25777135,-99999.0,'11111222,11111222,99999999' 
TABS,ioos:station:wmo:42043:1,2006-11-01T02:30:00Z,28.9818,-94.9186,2.0,56.68533468,23.28681387,-99999.0,'11111222,11111222,99999999' 
TABS,ioos:station:wmo:42043:1,2006-11-01T03:00:00Z,28.9818,-94.9186,2.0,60.96432281,26.55787077,-99999.0,'11111222,11111222,99999999' 
TABS,ioos:station:wmo:42043:1,2006-11-01T03:30:00Z,28.9818,-94.9186,2.0,53.68582185,27.0172704,-99999.0,'11111222,11111222,99999999' 
TABS,ioos:station:wmo:42043:1,2006-11-01T04:00:00Z,28.9818,-94.9186,2.0,52.8752339,24.72024474,-99999.0,'11111222,11111222,99999999' 
TABS,ioos:station:wmo:42043:1,2006-11-01T04:30:00Z,28.9818,-94.9186,2.0,50.69039311,27.81321269,-99999.0,'11111222,11111222,99999999' 
TABS,ioos:station:wmo:42043:1,2006-11-01T05:00:00Z,28.9818,-94.9186,2.0,52.62760808,28.50109647,-99999.0,'11111222,11111222,99999999' 
TABS,ioos:station:wmo:42043:1,2006-11-01T05:30:00Z,28.9818,-94.9186,2.0,57.94088871,27.09143776,-99999.0,'11111222,11111222,99999999' 
TABS,ioos:station:wmo:42043:1,2006-11-01T06:00:00Z,28.9818,-94.9186,2.0,47.67196357,25.48354763,-99999.0,'11111222,11111222,99999999' 
TABS,ioos:station:wmo:42043:1,2006-11-01T06:30:00Z,28.9818,-94.9186,2.0,58.41053442,27.16528115,-99999.0,'11111222,11111222,99999999' 
TABS,ioos:station:wmo:42043:1,2006-11-01T07:00:00Z,28.9818,-94.9186,2.0,63.99576716,26.50314698,-99999.0,'11111222,11111222,99999999' 
TABS,ioos:station:wmo:42043:1,2006-11-01T07:30:00Z,28.9818,-94.9186,2.0,63.04411104,27.53110968,-99999.0,'11111222,11111222,99999999' 
TABS,ioos:station:wmo:42043:1,2006-11-01T08:00:00Z,28.9818,-94.9186,2.0,67.85349118,26.81860735,-99999.0,'11111222,11111222,99999999' 
TABS,ioos:station:wmo:42043:1,2006-11-01T08:30:00Z,28.9818,-94.9186,2.0,69.01887922,25.55429709,-99999.0,'11111222,11111222,99999999' 
TABS,ioos:station:wmo:42043:1,2006-11-01T09:00:00Z,28.9818,-94.9186,2.0,78.59183286,24.01445606,-99999.0,'11111222,11111222,99999999' 
TABS,ioos:station:wmo:42043:1,2006-11-01T09:30:00Z,28.9818,-94.9186,2.0,89.20893885,23.90227813,-99999.0,'11111222,11111222,99999999' 
TABS,ioos:station:wmo:42043:1,2006-11-01T10:00:00Z,28.9818,-94.9186,2.0,85.69035391,23.68697532,-99999.0,'11111222,11111222,99999999' 
TABS,ioos:station:wmo:42043:1,2006-11-01T10:30:00Z,28.9818,-94.9186,2.0,83.31650113,25.43283704,-99999.0,'11111222,11111222,99999999' 
TABS,ioos:station:wmo:42043:1,2006-11-01T11:00:00Z,28.9818,-94.9186,2.0,85.06516783,24.17962986,-99999.0,'11111222,11111222,99999999' 
TABS,ioos:station:wmo:42043:1,2006-11-01T11:30:00Z,28.9818,-94.9186,2.0,93.15617611,20.16058035,-99999.0,'11111222,11111222,99999999' 
TABS,ioos:station:wmo:42043:1,2006-11-01T12:00:00Z,28.9818,-94.9186,2.0,100.0560978,17.92538424,-99999.0,'11111222,11111222,99999999' 
TABS,ioos:station:wmo:42043:1,2006-11-01T12:30:00Z,28.9818,-94.9186,2.0,94.63284177,23.647262,-99999.0,'11111222,11111222,99999999' 
TABS,ioos:station:wmo:42043:1,2006-11-01T13:00:00Z,28.9818,-94.9186,2.0,102.2465075,21.35597809,-99999.0,'11111222,11111222,99999999' 
TABS,ioos:station:wmo:42043:1,2006-11-01T13:30:00Z,28.9818,-94.9186,2.0,109.9806461,20.2807421,-99999.0,'11111222,11111222,99999999' 
TABS,ioos:station:wmo:42043:1,2006-11-01T14:00:00Z,28.9818,-94.9186,2.0,112.1407905,18.49372326,-99999.0,'11111222,11111222,99999999' 
TABS,ioos:station:wmo:42043:1,2006-11-01T14:30:00Z,28.9818,-94.9186,2.0,118.012415,16.28824423,-99999.0,'11111222,11111222,99999999' 
TABS,ioos:station:wmo:42043:1,2006-11-01T15:00:00Z,28.9818,-94.9186,2.0,121.1522688,11.46302752,-99999.0,'11111222,11111222,99999999' 
TABS,ioos:station:wmo:42043:1,2006-11-01T15:30:00Z,28.9818,-94.9186,2.0,123.2211862,9.491238065,-99999.0,'11133222,11111222,99999999' 
TABS,ioos:station:wmo:42043:1,2006-11-01T16:00:00Z,28.9818,-94.9186,2.0,203.4578342,10.72653252,-99999.0,'11111222,11111222,99999999' 
TABS,ioos:station:wmo:42043:1,2006-11-01T16:30:00Z,28.9818,-94.9186,2.0,220.7082669,13.32389207,-99999.0,'11111222,11111222,99999999' 
TABS,ioos:station:wmo:42043:1,2006-11-01T17:00:00Z,28.9818,-94.9186,2.0,219.3402157,14.98593007,-99999.0,'11111222,11111222,99999999' 
TABS,ioos:station:wmo:42043:1,2006-11-01T17:30:00Z,28.9818,-94.9186,2.0,218.5170808,20.10431048,-99999.0,'11111222,11111222,99999999' 
TABS,ioos:station:wmo:42043:1,2006-11-01T18:00:00Z,28.9818,-94.9186,2.0,229.5581676,27.22487833,-99999.0,'11111222,11111222,99999999' 
TABS,ioos:station:wmo:42043:1,2006-11-01T18:30:00Z,28.9818,-94.9186,2.0,232.0617523,34.33596511,-99999.0,'11111222,11111222,99999999' 
TABS,ioos:station:wmo:42043:1,2006-11-01T19:00:00Z,28.9818,-94.9186,2.0,233.5343051,41.35703084,-99999.0,'11111222,11111222,99999999' 
TABS,ioos:station:wmo:42043:1,2006-11-01T19:30:00Z,28.9818,-94.9186,2.0,232.770425,42.41283414,-99999.0,'11111222,11111222,99999999' 
TABS,ioos:station:wmo:42043:1,2006-11-01T20:00:00Z,28.9818,-94.9186,2.0,232.6961982,45.195294,-99999.0,'11111222,11111222,99999999' 
TABS,ioos:station:wmo:42043:1,2006-11-01T20:30:00Z,28.9818,-94.9186,2.0,232.340596,49.80672445,-99999.0,'11111222,11111222,99999999' 
TABS,ioos:station:wmo:42043:1,2006-11-01T21:00:00Z,28.9818,-94.9186,2.0,231.8826709,48.7955582,-99999.0,'11111222,11111222,99999999' 
TABS,ioos:station:wmo:42043:1,2006-11-01T21:30:00Z,28.9818,-94.9186,2.0,233.1809165,51.52802053,-99999.0,'11111222,11111222,99999999' 
TABS,ioos:station:wmo:42043:1,2006-11-01T22:00:00Z,28.9818,-94.9186,2.0,233.5183902,46.58907168,-99999.0,'11111222,11111222,99999999' 
TABS,ioos:station:wmo:42043:1,2006-11-01T22:30:00Z,28.9818,-94.9186,2.0,234.8574188,43.11960111,-99999.0,'11111222,11111222,99999999' 
TABS,ioos:station:wmo:42043:1,2006-11-01T23:00:00Z,28.9818,-94.9186,2.0,230.6303539,43.88975393,-99999.0,'11111222,11111222,99999999' 
TABS,ioos:station:wmo:42043:1,2006-11-01T23:30:00Z,28.9818,-94.9186,2.0,232.4154019,42.34929161,-99999.0,'11111222,11111222,99999999' 
TABS,ioos:station:wmo:42043:1,2006-11-02T00:00:00Z,28.9818,-94.9186,2.0,235.702961,48.20060166,-99999.0,'11111222,11111222,99999999' 
TABS,ioos:station:wmo:42043:1,2006-11-02T00:30:00Z,28.9818,-94.9186,2.0,242.2617819,41.29541016,-99999.0,'11111222,11111222,99999999' 
TABS,ioos:station:wmo:42043:1,2006-11-02T01:00:00Z,28.9818,-94.9186,2.0,246.748262,37.05994334,-99999.0,'11111222,11111222,99999999' 
TABS,ioos:station:wmo:42043:1,2006-11-02T01:30:00Z,28.9818,-94.9186,2.0,250.6136413,34.10353794,-99999.0,'11111222,11111222,99999999' 
TABS,ioos:station:wmo:42043:1,2006-11-02T02:00:00Z,28.9818,-94.9186,2.0,255.1375845,29.7864684,-99999.0,'11111222,11111222,99999999' 
TABS,ioos:station:wmo:42043:1,2006-11-02T02:30:00Z,28.9818,-94.9186,2.0,252.5421346,33.36688478,-99999.0,'11111222,11111222,99999999' 
TABS,ioos:station:wmo:42043:1,2006-11-02T03:00:00Z,28.9818,-94.9186,2.0,248.4198469,32.16453015,-99999.0,'11111222,11111222,99999999' 
TABS,ioos:station:wmo:42043:1,2006-11-02T03:30:00Z,28.9818,-94.9186,2.0,248.3928162,32.80512765,-99999.0,'11111222,11111222,99999999' 
TABS,ioos:station:wmo:42043:1,2006-11-02T04:00:00Z,28.9818,-94.9186,2.0,249.2321813,34.57653106,-99999.0,'11111222,11111222,99999999' 
TABS,ioos:station:wmo:42043:1,2006-11-02T04:30:00Z,28.9818,-94.9186,2.0,251.3125128,33.0524462,-99999.0,'11111222,11111222,99999999' 
TABS,ioos:station:wmo:42043:1,2006-11-02T05:00:00Z,28.9818,-94.9186,2.0,249.0886636,30.23113792,-99999.0,'11111222,11111222,99999999' 
TABS,ioos:station:wmo:42043:1,2006-11-02T05:30:00Z,28.9818,-94.9186,2.0,248.6793302,32.72995723,-99999.0,'11111222,11111222,99999999' 
TABS,ioos:station:wmo:42043:1,2006-11-02T06:00:00Z,28.9818,-94.9186,2.0,248.6953724,31.45983153,-99999.0,'11111222,11111222,99999999' 
TABS,ioos:station:wmo:42043:1,2006-11-02T06:30:00Z,28.9818,-94.9186,2.0,247.4440031,30.18924974,-99999.0,'11111222,11111222,99999999' 
TABS,ioos:station:wmo:42043:1,2006-11-02T07:00:00Z,28.9818,-94.9186,2.0,245.5661382,31.74282439,-99999.0,'11111222,11111222,99999999' 
TABS,ioos:station:wmo:42043:1,2006-11-02T07:30:00Z,28.9818,-94.9186,2.0,244.9838283,31.92483203,-99999.0,'11111222,11111222,99999999' 
TABS,ioos:station:wmo:42043:1,2006-11-02T08:00:00Z,28.9818,-94.9186,2.0,248.929686,31.71006307,-99999.0,'11111222,11111222,99999999' 
TABS,ioos:station:wmo:42043:1,2006-11-02T08:30:00Z,28.9818,-94.9186,2.0,245.6845924,35.31237743,-99999.0,'11111222,11111222,99999999' 
TABS,ioos:station:wmo:42043:1,2006-11-02T09:00:00Z,28.9818,-94.9186,2.0,249.2098657,32.70976154,-99999.0,'11111222,11111222,99999999' 
TABS,ioos:station:wmo:42043:1,2006-11-02T09:30:00Z,28.9818,-94.9186,2.0,253.6910693,37.9260135,-99999.0,'11111222,11111222,99999999' 
TABS,ioos:station:wmo:42043:1,2006-11-02T10:00:00Z,28.9818,-94.9186,2.0,254.5431729,34.44578929,-99999.0,'11111222,11111222,99999999' 
TABS,ioos:station:wmo:42043:1,2006-11-02T10:30:00Z,28.9818,-94.9186,2.0,256.5176807,40.36224226,-99999.0,'11111222,11111222,99999999' 
TABS,ioos:station:wmo:42043:1,2006-11-02T11:00:00Z,28.9818,-94.9186,2.0,254.2668193,39.24006244,-99999.0,'11111222,11111222,99999999' 
TABS,ioos:station:wmo:42043:1,2006-11-02T11:30:00Z,28.9818,-94.9186,2.0,254.7328208,38.73702234,-99999.0,'11111222,11111222,99999999' 
TABS,ioos:station:wmo:42043:1,2006-11-02T12:00:00Z,28.9818,-94.9186,2.0,254.7140093,36.262846,-99999.0,'11111222,11111222,99999999' 
TABS,ioos:station:wmo:42043:1,2006-11-02T12:30:00Z,28.9818,-94.9186,2.0,254.0650419,43.63670473,-99999.0,'11111222,11111222,99999999' 
TABS,ioos:station:wmo:42043:1,2006-11-02T13:00:00Z,28.9818,-94.9186,2.0,253.2308623,42.63287933,-99999.0,'11111222,11111222,99999999' 
TABS,ioos:station:wmo:42043:1,2006-11-02T13:30:00Z,28.9818,-94.9186,2.0,259.5688734,43.96656912,-99999.0,'11111222,11111222,99999999' 
TABS,ioos:station:wmo:42043:1,2006-11-02T14:00:00Z,28.9818,-94.9186,2.0,260.3473471,45.62590163,-99999.0,'11111222,11111222,99999999' 
TABS,ioos:station:wmo:42043:1,2006-11-02T14:30:00Z,28.9818,-94.9186,2.0,262.5052189,40.40515437,-99999.0,'11111222,11111222,99999999' 
TABS,ioos:station:wmo:42043:1,2006-11-02T15:00:00Z,28.9818,-94.9186,2.0,264.21792,40.10400977,-99999.0,'11111222,11111222,99999999' 
TABS,ioos:station:wmo:42043:1,2006-11-02T15:30:00Z,28.9818,-94.9186,2.0,262.6847679,38.56385095,-99999.0,'11111222,11111222,99999999' 
TABS,ioos:station:wmo:42043:1,2006-11-02T16:00:00Z,28.9818,-94.9186,2.0,265.9635803,39.49795438,-99999.0,'11111222,11111222,99999999' 
TABS,ioos:station:wmo:42043:1,2006-11-02T16:30:00Z,28.9818,-94.9186,2.0,262.5131359,34.9983371,-99999.0,'11111222,11111222,99999999' 
TABS,ioos:station:wmo:42043:1,2006-11-02T17:00:00Z,28.9818,-94.9186,2.0,259.3262651,36.71520666,-99999.0,'11111222,11111222,99999999' 
TABS,ioos:station:wmo:42043:1,2006-11-02T17:30:00Z,28.9818,-94.9186,2.0,258.2891011,34.78400782,-99999.0,'11111222,11111222,99999999' 
TABS,ioos:station:wmo:42043:1,2006-11-02T18:00:00Z,28.9818,-94.9186,2.0,257.1567705,34.23647908,-99999.0,'11111222,11111222,99999999' 
TABS,ioos:station:wmo:42043:1,2006-11-02T18:30:00Z,28.9818,-94.9186,2.0,256.439568,33.26733533,-99999.0,'11111222,11111222,99999999' 
TABS,ioos:station:wmo:42043:1,2006-11-02T19:00:00Z,28.9818,-94.9186,2.0,254.0621558,29.75367204,-99999.0,'11111222,11111222,99999999' 
TABS,ioos:station:wmo:42043:1,2006-11-02T19:30:00Z,28.9818,-94.9186,2.0,252.013141,33.1290356,-99999.0,'11111222,11111222,99999999' 
TABS,ioos:station:wmo:42043:1,2006-11-02T20:00:00Z,28.9818,-94.9186,2.0,249.1136284,35.56705357,-99999.0,'11111222,11111222,99999999' 
TABS,ioos:station:wmo:42043:1,2006-11-02T20:30:00Z,28.9818,-94.9186,2.0,249.8688824,35.47731952,-99999.0,'11111222,11111222,99999999' 
TABS,ioos:station:wmo:42043:1,2006-11-02T21:00:00Z,28.9818,-94.9186,2.0,249.4187679,37.83472479,-99999.0,'11111222,11111222,99999999' 
TABS,ioos:station:wmo:42043:1,2006-11-02T21:30:00Z,28.9818,-94.9186,2.0,249.5467574,38.34742364,-99999.0,'11111222,11111222,99999999' 
TABS,ioos:station:wmo:42043:1,2006-11-02T22:00:00Z,28.9818,-94.9186,2.0,249.211382,38.12178511,-99999.0,'11111222,11111222,99999999' 
TABS,ioos:station:wmo:42043:1,2006-11-02T22:30:00Z,28.9818,-94.9186,2.0,249.6409336,38.05732518,-99999.0,'11111222,11111222,99999999' 
TABS,ioos:station:wmo:42043:1,2006-11-02T23:00:00Z,28.9818,-94.9186,2.0,249.1270151,37.91839923,-99999.0,'11111222,11111222,99999999' 
TABS,ioos:station:wmo:42043:1,2006-11-02T23:30:00Z,28.9818,-94.9186,2.0,254.9356481,47.05705579,-99999.0,'11111222,11111222,99999999' 
TABS,ioos:station:wmo:42043:1,2006-11-03T00:00:00Z,28.9818,-94.9186,2.0,259.4982426,44.33254448,-99999.0,'11111222,11111222,99999999' 
TABS,ioos:station:wmo:42043:1,2006-11-03T00:30:00Z,28.9818,-94.9186,2.0,254.8810766,38.26439598,-99999.0,'11111222,11111222,99999999' 
TABS,ioos:station:wmo:42043:1,2006-11-03T01:00:00Z,28.9818,-94.9186,2.0,259.3437431,39.85731802,-99999.0,'11111222,11111222,99999999' 
TABS,ioos:station:wmo:42043:1,2006-11-03T01:30:00Z,28.9818,-94.9186,2.0,259.3281352,38.71965134,-99999.0,'11111222,11111222,99999999' 
TABS,ioos:station:wmo:42043:1,2006-11-03T02:00:00Z,28.9818,-94.9186,2.0,255.7514028,38.67984617,-99999.0,'11111222,11111222,99999999' 
TABS,ioos:station:wmo:42043:1,2006-11-03T02:30:00Z,28.9818,-94.9186,2.0,250.0265316,39.11249417,-99999.0,'11111222,11111222,99999999' 
TABS,ioos:station:wmo:42043:1,2006-11-03T03:00:00Z,28.9818,-94.9186,2.0,251.1798408,40.01952648,-99999.0,'11111222,11111222,99999999' 
TABS,ioos:station:wmo:42043:1,2006-11-03T03:30:00Z,28.9818,-94.9186,2.0,247.5437226,41.12862993,-99999.0,'11111222,11111222,99999999' 
TABS,ioos:station:wmo:42043:1,2006-11-03T04:00:00Z,28.9818,-94.9186,2.0,245.8674559,41.82533801,-99999.0,'11111222,11111222,99999999' 
TABS,ioos:station:wmo:42043:1,2006-11-03T04:30:00Z,28.9818,-94.9186,2.0,254.2249481,43.33195588,-99999.0,'11111222,11111222,99999999' 
TABS,ioos:station:wmo:42043:1,2006-11-03T05:00:00Z,28.9818,-94.9186,2.0,249.4977577,42.08567452,-99999.0,'11111222,11111222,99999999' 
TABS,ioos:station:wmo:42043:1,2006-11-03T05:30:00Z,28.9818,-94.9186,2.0,246.928987,41.74898442,-99999.0,'11111222,11111222,99999999' 
TABS,ioos:station:wmo:42043:1,2006-11-03T06:00:00Z,28.9818,-94.9186,2.0,243.1342147,43.50553643,-99999.0,'11111222,11111222,99999999' 
TABS,ioos:station:wmo:42043:1,2006-11-03T06:30:00Z,28.9818,-94.9186,2.0,245.6878628,46.63571593,-99999.0,'11111222,11111222,99999999' 
TABS,ioos:station:wmo:42043:1,2006-11-03T07:00:00Z,28.9818,-94.9186,2.0,242.8446338,49.07982172,-99999.0,'11111222,11111222,99999999' 
TABS,ioos:station:wmo:42043:1,2006-11-03T07:30:00Z,28.9818,-94.9186,2.0,241.6605133,47.52580878,-99999.0,'11111222,11111222,99999999' 
TABS,ioos:station:wmo:42043:1,2006-11-03T08:00:00Z,28.9818,-94.9186,2.0,236.7210614,44.4132165,-99999.0,'11111222,11111222,99999999' 
TABS,ioos:station:wmo:42043:1,2006-11-03T08:30:00Z,28.9818,-94.9186,2.0,236.7113911,45.87760783,-99999.0,'11111222,11111222,99999999' 
TABS,ioos:station:wmo:42043:1,2006-11-03T09:00:00Z,28.9818,-94.9186,2.0,235.0473026,41.42119506,-99999.0,'11111222,11111222,99999999' 
TABS,ioos:station:wmo:42043:1,2006-11-03T09:30:00Z,28.9818,-94.9186,2.0,240.7841824,51.54731516,-99999.0,'11111222,11111222,99999999' 
TABS,ioos:station:wmo:42043:1,2006-11-03T10:00:00Z,28.9818,-94.9186,2.0,239.3042567,49.7968754,-99999.0,'11111222,11111222,99999999' 
TABS,ioos:station:wmo:42043:1,2006-11-03T10:30:00Z,28.9818,-94.9186,2.0,242.5987395,53.64897949,-99999.0,'11111222,11111222,99999999' 
TABS,ioos:station:wmo:42043:1,2006-11-03T11:00:00Z,28.9818,-94.9186,2.0,244.3873518,57.55540287,-99999.0,'11111222,11111222,99999999' 
TABS,ioos:station:wmo:42043:1,2006-11-03T11:30:00Z,28.9818,-94.9186,2.0,244.1302957,52.30101337,-99999.0,'11111222,11111222,99999999' 
TABS,ioos:station:wmo:42043:1,2006-11-03T12:00:00Z,28.9818,-94.9186,2.0,243.470039,50.59775588,-99999.0,'11111222,11111222,99999999' 
TABS,ioos:station:wmo:42043:1,2006-11-03T12:30:00Z,28.9818,-94.9186,2.0,242.9382921,45.43413364,-99999.0,'11111222,11111222,99999999' 
TABS,ioos:station:wmo:42043:1,2006-11-03T13:00:00Z,28.9818,-94.9186,2.0,247.0582798,43.86992136,-99999.0,'11111222,11111222,99999999' 
TABS,ioos:station:wmo:42043:1,2006-11-03T13:30:00Z,28.9818,-94.9186,2.0,244.310017,44.19880654,-99999.0,'11111222,11111222,99999999' 
TABS,ioos:station:wmo:42043:1,2006-11-03T14:00:00Z,28.9818,-94.9186,2.0,243.3895227,34.11346362,-99999.0,'11111222,11111222,99999999' 
TABS,ioos:station:wmo:42043:1,2006-11-03T14:30:00Z,28.9818,-94.9186,2.0,251.8798663,51.73564535,-99999.0,'11111222,11111222,99999999' 
TABS,ioos:station:wmo:42043:1,2006-11-03T15:00:00Z,28.9818,-94.9186,2.0,257.9522451,51.50436292,-99999.0,'11111222,11111222,99999999' 
TABS,ioos:station:wmo:42043:1,2006-11-03T15:30:00Z,28.9818,-94.9186,2.0,262.4988756,49.1808296,-99999.0,'11111222,11111222,99999999' 
TABS,ioos:station:wmo:42043:1,2006-11-03T16:00:00Z,28.9818,-94.9186,2.0,259.5556249,47.88330085,-99999.0,'11111222,11111222,99999999' 
TABS,ioos:station:wmo:42043:1,2006-11-03T16:30:00Z,28.9818,-94.9186,2.0,261.6096731,46.4672928,-99999.0,'11111222,11111222,99999999' 
TABS,ioos:station:wmo:42043:1,2006-11-03T17:00:00Z,28.9818,-94.9186,2.0,264.4765813,44.67740928,-99999.0,'11111222,11111222,99999999' 
TABS,ioos:station:wmo:42043:1,2006-11-03T17:30:00Z,28.9818,-94.9186,2.0,263.4628345,46.99551681,-99999.0,'11111222,11111222,99999999' 
TABS,ioos:station:wmo:42043:1,2006-11-03T18:00:00Z,28.9818,-94.9186,2.0,265.3574997,46.58280584,-99999.0,'11111222,11111222,99999999' 
TABS,ioos:station:wmo:42043:1,2006-11-03T18:30:00Z,28.9818,-94.9186,2.0,262.4960561,42.80656141,-99999.0,'11111222,11111222,99999999' 
TABS,ioos:station:wmo:42043:1,2006-11-03T19:00:00Z,28.9818,-94.9186,2.0,260.6842875,44.85147935,-99999.0,'11111222,11111222,99999999' 
TABS,ioos:station:wmo:42043:1,2006-11-03T19:30:00Z,28.9818,-94.9186,2.0,260.8985944,46.40418085,-99999.0,'11111222,11111222,99999999' 
TABS,ioos:station:wmo:42043:1,2006-11-03T20:00:00Z,28.9818,-94.9186,2.0,257.0389075,44.319067,-99999.0,'11111222,11111222,99999999' 
TABS,ioos:station:wmo:42043:1,2006-11-03T20:30:00Z,28.9818,-94.9186,2.0,255.7487069,50.49384616,-99999.0,'11111222,11111222,99999999' 
TABS,ioos:station:wmo:42043:1,2006-11-03T21:00:00Z,28.9818,-94.9186,2.0,256.3003123,47.8409793,-99999.0,'11111222,11111222,99999999' 
TABS,ioos:station:wmo:42043:1,2006-11-03T21:30:00Z,28.9818,-94.9186,2.0,255.7017003,41.42309139,-99999.0,'11111222,11111222,99999999' 
TABS,ioos:station:wmo:42043:1,2006-11-03T22:00:00Z,28.9818,-94.9186,2.0,255.0492298,38.91736887,-99999.0,'11111222,11111222,99999999' 
TABS,ioos:station:wmo:42043:1,2006-11-03T22:30:00Z,28.9818,-94.9186,2.0,258.5867345,38.20544595,-99999.0,'11111222,11111222,99999999' 
TABS,ioos:station:wmo:42043:1,2006-11-03T23:00:00Z,28.9818,-94.9186,2.0,255.7862135,39.2206234,-99999.0,'11111222,11111222,99999999' 
TABS,ioos:station:wmo:42043:1,2006-11-03T23:30:00Z,28.9818,-94.9186,2.0,255.2382354,39.2866415,-99999.0,'11111222,11111222,99999999' 
TABS,ioos:station:wmo:42043:1,2006-11-04T00:00:00Z,28.9818,-94.9186,2.0,250.0300113,39.90961037,-99999.0,'11111222,11111222,99999999' 
TABS,ioos:station:wmo:42043:1,2006-11-04T00:30:00Z,28.9818,-94.9186,2.0,249.3836098,39.13624024,-99999.0,'11111222,11111222,99999999' 
TABS,ioos:station:wmo:42043:1,2006-11-04T01:00:00Z,28.9818,-94.9186,2.0,253.8803643,39.83612054,-99999.0,'11111222,11111222,99999999' 
TABS,ioos:station:wmo:42043:1,2006-11-04T01:30:00Z,28.9818,-94.9186,2.0,254.1157625,37.08600005,-99999.0,'11111222,11111222,99999999' 
TABS,ioos:station:wmo:42043:1,2006-11-04T02:00:00Z,28.9818,-94.9186,2.0,259.5819464,38.15902121,-99999.0,'11111222,11111222,99999999' 
TABS,ioos:station:wmo:42043:1,2006-11-04T02:30:00Z,28.9818,-94.9186,2.0,260.3936876,36.73506908,-99999.0,'11111222,11111222,99999999' 
TABS,ioos:station:wmo:42043:1,2006-11-04T03:00:00Z,28.9818,-94.9186,2.0,261.5868217,36.97789204,-99999.0,'11111222,11111222,99999999' 
TABS,ioos:station:wmo:42043:1,2006-11-04T03:30:00Z,28.9818,-94.9186,2.0,265.0340077,35.81441609,-99999.0,'11111222,11111222,99999999' 
TABS,ioos:station:wmo:42043:1,2006-11-04T04:00:00Z,28.9818,-94.9186,2.0,260.509092,33.41738619,-99999.0,'11111222,11111222,99999999' 
TABS,ioos:station:wmo:42043:1,2006-11-04T04:30:00Z,28.9818,-94.9186,2.0,258.5642676,30.4647534,-99999.0,'11111222,11111222,99999999' 
TABS,ioos:station:wmo:42043:1,2006-11-04T05:00:00Z,28.9818,-94.9186,2.0,252.3093649,29.68364533,-99999.0,'11111222,11111222,99999999' 
TABS,ioos:station:wmo:42043:1,2006-11-04T05:30:00Z,28.9818,-94.9186,2.0,247.019091,29.32750416,-99999.0,'11111222,11111222,99999999' 
TABS,ioos:station:wmo:42043:1,2006-11-04T06:00:00Z,28.9818,-94.9186,2.0,236.9389194,32.57396046,-99999.0,'11111222,11111222,99999999' 
TABS,ioos:station:wmo:42043:1,2006-11-04T06:30:00Z,28.9818,-94.9186,2.0,231.2111564,32.67631864,-99999.0,'11111222,11111222,99999999' 
TABS,ioos:station:wmo:42043:1,2006-11-04T07:00:00Z,28.9818,-94.9186,2.0,231.2411986,32.64973507,-99999.0,'11111222,11111222,99999999' 
TABS,ioos:station:wmo:42043:1,2006-11-04T07:30:00Z,28.9818,-94.9186,2.0,229.8519972,34.52447972,-99999.0,'11111222,11111222,99999999' 
TABS,ioos:station:wmo:42043:1,2006-11-04T08:00:00Z,28.9818,-94.9186,2.0,229.7829197,36.03946864,-99999.0,'11111222,11111222,99999999' 
TABS,ioos:station:wmo:42043:1,2006-11-04T08:30:00Z,28.9818,-94.9186,2.0,230.5847729,38.87033959,-99999.0,'11111222,11111222,99999999' 
TABS,ioos:station:wmo:42043:1,2006-11-04T09:00:00Z,28.9818,-94.9186,2.0,220.1456692,28.6628418,-99999.0,'11111222,11111222,99999999' 
TABS,ioos:station:wmo:42043:1,2006-11-04T09:30:00Z,28.9818,-94.9186,2.0,222.3495222,35.93824843,-99999.0,'11111222,11111222,99999999' 
TABS,ioos:station:wmo:42043:1,2006-11-04T10:00:00Z,28.9818,-94.9186,2.0,231.9290602,44.9538708,-99999.0,'11111222,11111222,99999999' 
TABS,ioos:station:wmo:42043:1,2006-11-04T10:30:00Z,28.9818,-94.9186,2.0,228.5662375,41.3751713,-99999.0,'11111222,11111222,99999999' 
TABS,ioos:station:wmo:42043:1,2006-11-04T11:00:00Z,28.9818,-94.9186,2.0,229.114512,40.50141356,-99999.0,'11111222,11111222,99999999' 
TABS,ioos:station:wmo:42043:1,2006-11-04T11:30:00Z,28.9818,-94.9186,2.0,232.3100494,40.12210613,-99999.0,'11111222,11111222,99999999' 
TABS,ioos:station:wmo:42043:1,2006-11-04T12:00:00Z,28.9818,-94.9186,2.0,233.1192922,43.75600073,-99999.0,'11111222,11111222,99999999' 
TABS,ioos:station:wmo:42043:1,2006-11-04T12:30:00Z,28.9818,-94.9186,2.0,221.2327511,27.44554062,-99999.0,'11111222,11111222,99999999' 
TABS,ioos:station:wmo:42043:1,2006-11-04T13:00:00Z,28.9818,-94.9186,2.0,239.7604493,33.49806711,-99999.0,'11111222,11111222,99999999' 
TABS,ioos:station:wmo:42043:1,2006-11-04T13:30:00Z,28.9818,-94.9186,2.0,240.4120128,32.9921233,-99999.0,'11111222,11111222,99999999' 
TABS,ioos:station:wmo:42043:1,2006-11-04T14:00:00Z,28.9818,-94.9186,2.0,242.4794766,31.12144598,-99999.0,'11111222,11111222,99999999' 
TABS,ioos:station:wmo:42043:1,2006-11-04T14:30:00Z,28.9818,-94.9186,2.0,247.8414378,28.92632365,-99999.0,'11111222,11111222,99999999' 
TABS,ioos:station:wmo:42043:1,2006-11-04T15:00:00Z,28.9818,-94.9186,2.0,248.7171039,25.01604485,-99999.0,'11111222,11111222,99999999' 
TABS,ioos:station:wmo:42043:1,2006-11-04T15:30:00Z,28.9818,-94.9186,2.0,249.454316,24.98945578,-99999.0,'11111222,11111222,99999999' 
TABS,ioos:station:wmo:42043:1,2006-11-04T16:00:00Z,28.9818,-94.9186,2.0,262.771002,20.58359784,-99999.0,'11111222,11111222,99999999' 